This demonstration page uses our WeatherBlox Daily Observations layout. Learn more.

Left ArrowRight Arrow

Hourly Observations for September 13, 2022

Temp ( °F °C ) Dew Point ( °F °C ) Humidity (%) Winds ( mph kmh ) Pressure ( in mb ) Visibility ( mi km ) Precip ( " mm )
12:15 am 00:15 Mostly Cloudy 70 21 70 21 100 100 Calm 29.81 1009 N/A 0.00 0.00
12:35 am 00:35 Mostly Cloudy 68 20 68 20 100 100 Calm 29.81 1010 N/A 0.00 0.00
12:55 am 00:55 undefined 68 20 68 20 100 100 Calm 29.81 1010 N/A 0.00 0.00
1:15 am 01:15 Cloudy 70 21 70 21 100 100 Calm 29.81 1009 N/A 0.00 0.00
1:35 am 01:35 Cloudy 70 21 70 21 100 100 Calm 29.81 1009 N/A 0.00 0.00
1:55 am 01:55 undefined 70 21 70 21 100 100 Calm 29.81 1009 N/A 0.00 0.00
2:15 am 02:15 undefined 70 21 70 21 100 100 NW 3 6 29.80 1009 N/A 0.00 0.00
2:35 am 02:35 Cloudy 70 21 68 20 94 94 Calm 29.80 1009 N/A 0.00 0.00
2:55 am 02:55 Cloudy 70 21 68 20 94 94 N 5 7 29.79 1009 N/A 0.00 0.00
3:15 am 03:15 Cloudy 68 20 68 20 100 100 WNW 5 7 29.79 1009 N/A 0.00 0.00
3:35 am 03:35 Cloudy 68 20 68 20 100 100 NW 3 6 29.79 1009 N/A 0.00 0.00
3:55 am 03:55 Cloudy 68 20 68 20 100 100 NW 5 7 29.79 1009 N/A 0.00 0.00
4:15 am 04:15 undefined 68 20 66 19 94 94 Calm 29.79 1009 N/A 0.00 0.00
4:35 am 04:35 undefined 68 20 64 18 88 88 NW 5 7 29.79 1009 N/A 0.00 0.00
4:55 am 04:55 undefined 66 19 64 18 94 94 NW 6 9 29.79 1009 N/A 0.00 0.00
5:15 am 05:15 undefined 66 19 64 18 94 94 NNW 5 7 29.79 1009 N/A 0.00 0.00
5:35 am 05:35 Mostly Cloudy 66 19 64 18 94 94 NNW 3 6 29.80 1009 N/A 0.00 0.00
5:55 am 05:55 Cloudy 68 20 64 18 88 88 Calm 29.80 1009 N/A 0.00 0.00
6:15 am 06:15 Cloudy 66 19 64 18 94 94 NNW 3 6 29.81 1010 N/A 0.00 0.00
6:35 am 06:35 Cloudy 66 19 64 18 94 94 NNW 5 7 29.82 1010 N/A 0.00 0.00
6:55 am 06:55 Cloudy 66 19 64 18 94 94 Calm 29.83 1010 N/A 0.00 0.00
7:15 am 07:15 Cloudy 68 20 64 18 88 88 Calm 29.83 1010 N/A 0.00 0.00
7:35 am 07:35 Cloudy 68 20 64 18 88 88 N 3 6 29.84 1011 N/A 0.00 0.00
7:55 am 07:55 Cloudy 68 20 64 18 88 88 Calm 29.85 1011 N/A 0.00 0.00
8:15 am 08:15 Cloudy 68 20 64 18 88 88 NNW 3 6 29.85 1011 N/A 0.00 0.00
8:35 am 08:35 Cloudy 68 20 63 17 83 83 NNW 6 9 29.86 1011 N/A 0.00 0.00
8:55 am 08:55 Cloudy 68 20 63 17 83 83 NNW 6 9 29.86 1011 N/A 0.00 0.00
9:15 am 09:15 Mostly Cloudy 70 21 63 17 78 78 NNW 8 13 29.86 1011 N/A 0.00 0.00
9:35 am 09:35 Mostly Cloudy 72 22 63 17 73 73 N 6 9 29.86 1011 N/A 0.00 0.00
9:55 am 09:55 Mostly Cloudy 72 22 61 16 69 69 N 7 11 29.87 1011 N/A 0.00 0.00
10:15 am 10:15 Cloudy 72 22 61 16 69 69 NW 9 15 29.87 1011 N/A 0.00 0.00
10:35 am 10:35 Cloudy 72 22 59 15 65 65 NNW 13 20 29.87 1011 N/A 0.00 0.00
10:55 am 10:55 Mostly Cloudy 73 23 59 15 61 61 WNW 14 22 29.87 1011 N/A 0.00 0.00
11:15 am 11:15 Cloudy 72 22 59 15 65 65 NNW 7 11 29.87 1011 N/A 0.00 0.00
11:35 am 11:35 Cloudy 73 23 59 15 61 61 NW 10 17 29.87 1011 N/A 0.00 0.00
11:55 am 11:55 Cloudy 75 24 59 15 57 57 WNW 6 9 29.86 1011 N/A 0.00 0.00
12:15 pm 12:15 Partly Cloudy 75 24 61 16 61 61 Calm 29.86 1011 N/A 0.00 0.00
12:35 pm 12:35 Sunny 77 25 59 15 54 54 WNW 7 11 29.85 1011 N/A 0.00 0.00
12:55 pm 12:55 Sunny 77 25 57 14 50 50 WNW 6 9 29.85 1011 N/A 0.00 0.00
1:15 pm 13:15 Sunny 77 25 59 15 54 54 W 6 9 29.83 1010 N/A 0.00 0.00
1:35 pm 13:35 Sunny 77 25 55 13 47 47 WNW 9 15 29.83 1010 N/A 0.00 0.00
1:55 pm 13:55 Partly Cloudy 79 26 57 14 48 48 W 5 7 29.83 1010 N/A 0.00 0.00
2:15 pm 14:15 Partly Cloudy 79 26 57 14 48 48 WNW 9 15 29.83 1010 N/A 0.00 0.00
2:35 pm 14:35 Partly Cloudy 79 26 55 13 45 45 NNW 6 9 29.82 1010 N/A 0.00 0.00
2:55 pm 14:55 Mostly Cloudy 79 26 59 15 51 51 WNW 9 15 29.82 1010 N/A 0.00 0.00
3:15 pm 15:15 Partly Cloudy 79 26 59 15 51 51 W 9 15 29.81 1010 N/A 0.00 0.00
3:35 pm 15:35 Sunny 79 26 57 14 48 48 W 6 9 29.81 1010 N/A 0.00 0.00
3:55 pm 15:55 Sunny 79 26 57 14 48 48 W 7 11 29.81 1010 N/A 0.00 0.00
4:15 pm 16:15 Sunny 79 26 57 14 48 48 W 7 11 29.81 1010 N/A 0.00 0.00
4:35 pm 16:35 Partly Cloudy 81 27 55 13 42 42 WNW 6 9 29.81 1010 N/A 0.00 0.00
4:55 pm 16:55 Partly Cloudy 79 26 55 13 45 45 WNW 12 19 29.81 1010 N/A 0.00 0.00
5:15 pm 17:15 Sunny 79 26 55 13 45 45 WNW 7 11 29.81 1010 N/A 0.00 0.00
5:35 pm 17:35 Sunny 79 26 57 14 48 48 W 9 15 29.81 1010 N/A 0.00 0.00
5:55 pm 17:55 Partly Cloudy 77 25 57 14 50 50 WNW 9 15 29.83 1010 N/A 0.00 0.00
6:15 pm 18:15 Partly Cloudy 77 25 57 14 50 50 WNW 5 7 29.83 1010 N/A 0.00 0.00
6:35 pm 18:35 Sunny 73 23 57 14 57 57 WNW 3 6 29.84 1010 N/A 0.00 0.00
6:55 pm 18:55 Sunny 73 23 59 15 61 61 WNW 5 7 29.84 1010 N/A 0.00 0.00
7:15 pm 19:15 Sunny 72 22 59 15 65 65 NW 5 7 29.85 1011 N/A 0.00 0.00
7:35 pm 19:35 Clear 70 21 59 15 69 69 NW 7 11 29.86 1011 N/A 0.00 0.00
7:55 pm 19:55 Partly Cloudy 70 21 57 14 64 64 NW 9 15 29.87 1011 N/A 0.00 0.00
8:15 pm 20:15 Partly Cloudy 70 21 55 13 60 60 NW 8 13 29.88 1012 N/A 0.00 0.00
8:35 pm 20:35 Mostly Cloudy 70 21 55 13 60 60 NW 10 17 29.89 1012 N/A 0.00 0.00
8:55 pm 20:55 Mostly Cloudy 70 21 55 13 60 60 NW 12 19 29.90 1013 N/A 0.00 0.00
9:15 pm 21:15 Mostly Cloudy 68 20 55 13 64 64 NW 9 15 29.92 1013 N/A 0.00 0.00
9:35 pm 21:35 Mostly Cloudy 68 20 55 13 64 64 NW 10 17 29.92 1013 N/A 0.00 0.00
9:55 pm 21:55 Partly Cloudy 68 20 55 13 64 64 NW 8 13 29.92 1013 N/A 0.00 0.00
10:15 pm 22:15 Partly Cloudy 66 19 55 13 68 68 NW 8 13 29.92 1013 N/A 0.00 0.00
10:35 pm 22:35 Clear 66 19 55 13 68 68 NW 8 13 29.93 1014 N/A 0.00 0.00
10:55 pm 22:55 Mostly Cloudy 64 18 55 13 73 73 NNW 9 15 29.94 1014 N/A 0.00 0.00
11:15 pm 23:15 Mostly Cloudy 64 18 55 13 73 73 NW 8 13 29.94 1014 10 16 0.00 0.00
11:35 pm 23:35 Partly Cloudy 64 18 55 13 73 73 NW 7 11 29.94 1014 10 16 0.00 0.00
11:55 pm 23:55 Clear 64 18 55 13 73 73 NNW 7 11 29.95 1014 10 16 0.00 0.00

Powered by AerisWeather